Flag Weather past 2 weeks in Burg, Saxony-Anhalt, Germany

Now
44 °F

Scattered clouds.


Feels Like: 42 °F
Forecast: 31 / 38 °F
Wind: 3 mph from East

Location: Magdeburg

Current Time: Nov 26, 2014 at 4:43:01 PM

Latest Report: Nov 26, 2014 at 3:00 PM


Visibility: 9 mi

Pressure: 30.15 "Hg

Humidity: 74%

Dew point: 36 °F

Location of BurgLocation

Historic Weather in Burg — Graph

°F

Burg temperature yesterday

Maximum temperature yesterday: 43 °F (at 1:00 PM)
Minimum temperature yesterday: 33 °F (at 7:00 AM)
Average temperature yesterday: 39 °F

Past Weeks' High & Low Weather Summary

 TemperatureHumidityPressure
High56 °F (Nov 14, 3:00 PM)99% (Nov 12, 1:00 AM)30.38 "Hg (Nov 12, 1:00 AM)
Low33 °F (Nov 25, 7:00 AM)72% (Nov 23, 1:00 PM)29.53 "Hg (Nov 16, 2:00 PM)
Average45 °F90%30.02 "Hg
* Reported Nov 11 3:00 PM — Nov 26 3:00 PM, Burg, Weather by CustomWeather, © 2014

Note: Actual official high and low records may vary slightly from our data, if they occured in-between our weather recording intervals... More about our weather records

Advertising

Burg weather history for previous 24 hours

 ConditionsComfort  
Time TempWeatherWind HumidityBarometerVisibility
3:00 PM
Nov 26
44 °FSunny.3 mph74%30.15 "Hg7 mi
2:00 PM44 °FPartly sunny.5 mph73%30.16 "Hg10 mi
1:00 PM42 °FPartly sunny.2 mph77%30.19 "Hg10 mi
12:00 PM41 °FPartly sunny.3 mph79%30.21 "Hg10 mi
11:00 AM40 °FPartly sunny.3 mph83%30.22 "Hg6 mi
9:00 AM37 °FFog.5 mph91%30.24 "Hg3 mi
8:00 AM37 °FFog.3 mph90%30.24 "Hg3 mi
7:00 AM38 °FFog.3 mph90%30.24 "Hg4 mi
6:00 AM38 °FFog.3 mph91%30.24 "Hg3 mi
5:00 AM38 °FFog.3 mph92%30.25 "Hg3 mi
3:00 AM38 °FFog.2 mph96%30.27 "Hg4 mi
2:00 AM38 °FLow clouds.2 mph98%30.29 "Hg5 mi
1:00 AM38 °FLow clouds.2 mph98%30.30 "Hg3 mi
12:00 AM37 °FDrizzle. Low clouds.2 mph99%30.32 "Hg1 mi
11:00 PM
Nov 25
37 °FLow clouds.2 mph98%30.34 "Hg1 mi
9:00 PM37 °FFog.2 mph99%30.34 "Hg1 mi
8:00 PM39 °FDrizzle. Low clouds.1 mph99%30.34 "Hg1 mi
7:00 PM39 °FFog.2 mph98%30.34 "Hg1 mi
6:00 PM40 °FFog.2 mph98%30.34 "Hg1 mi
5:00 PM41 °FFog.1 mph97%30.34 "Hg1 mi
Weather by CustomWeather, © 2014

See weather overviewHow to use our weather pages